User: anonymous   Login
Location: Unspecified
(0.0000°N, 0.0000°E)
Time: 23:17:20
(UTC+00:00)
Language:

OPAL - Orbit

View from above orbital plane
View from above orbital plane
View from above satellite
View from above satellite

Ground track
Ground track

The orbit data is extracted from the following two-line orbital elements,

1 26063U 00004C   21023.50082450 -.00000031  00000-0  93124-5 0  9992
2 26063 100.1915 290.3568 0036220 195.9959 164.0080 14.36776011100207
Epoch (UTC): 23 January 2021 12:01:11
Eccentricity: 0.0036220
inclination: 100.1915°
perigee height: 743 km
apogee height: 795 km
right ascension of ascending node: 290.3568°
argument of perigee: 195.9959°
revolutions per day: 14.36776011
mean anomaly at epoch: 164.0080°
orbit number at epoch: 10020

The dashed part of the orbit path shows where the satellite is in the earth's shadow,  

DLR